Wind_Speed
27 28 28 29 29 30 31 31 32 33 35 36 37 37 36 36 36 37 38 39 39 41 42 42 42 42 42 42 42 43 43 45 46 44 43 42 40 37
29 30 31 32 33 34 35 35 35 36 37 39 40 41 41 40 39 40 40 41 42 42 43 44 44 44 44 43 44 43 43 44 45 46 45 44 43 41
32 33 34 34 35 36 37 38 38 38 38 40 42 43 43 43 43 42 42 43 43 44 45 46 46 46 46 46 46 46 44 44 46 46 46 46 46 44
35 35 35 36 37 37 38 38 39 39 39 39 42 43 44 45 45 45 44 44 45 45 46 47 47 48 48 48 48 47 47 46 46 47 47 47 47 46
36 37 37 38 38 38 38 38 38 38 38 37 39 41 43 44 45 45 46 45 46 46 47 47 48 49 49 50 50 49 48 48 47 48 48 48 48 48
38 38 39 39 39 39 38 38 37 37 37 37 37 38 40 42 43 44 44 45 46 47 48 48 49 49 50 50 51 51 50 49 49 49 49 49 49 49
39 40 40 40 40 39 38 37 37 36 36 35 35 36 37 39 40 41 42 43 44 46 47 48 49 49 50 51 52 52 51 50 49 49 49 49 49 50
40 41 40 40 40 39 38 36 36 35 35 34 33 33 35 36 38 38 39 40 42 44 46 47 48 49 50 51 52 52 52 51 51 51 50 49 49 50
41 41 41 41 40 39 37 36 35 35 34 34 33 33 33 35 36 37 38 39 39 42 44 45 47 47 48 50 51 52 52 51 51 51 50 50 49 50
42 42 42 41 40 39 37 35 34 34 34 33 32 32 33 34 34 35 36 37 38 40 43 43 45 46 47 48 50 52 52 52 51 51 50 50 51 50
43 43 42 41 40 39 37 35 34 34 33 33 32 32 32 33 34 35 35 36 37 39 41 42 43 46 47 48 49 50 52 52 51 51 51 51 51 51
43 43 42 40 39 38 37 35 34 33 33 33 32 32 33 33 34 34 35 36 37 38 40 41 43 45 46 47 48 49 50 51 50 50 51 51 51 52
44 43 41 40 38 37 36 35 34 33 32 32 32 32 32 33 34 34 35 35 36 37 40 42 42 44 45 47 48 48 49 50 50 50 51 51 51 52
44 42 41 40 38 37 36 35 34 33 32 32 32 32 32 32 33 33 34 34 35 36 39 41 42 43 45 47 48 48 49 50 50 50 50 51 51 52
43 42 41 39 38 36 35 35 34 32 32 31 31 31 31 31 31 32 33 33 34 35 37 39 41 43 45 46 48 48 49 50 50 49 50 49 49 50
44 42 41 39 37 36 35 34 33 32 31 30 30 30 30 31 31 31 32 33 33 35 37 39 41 43 44 46 48 48 49 49 50 49 49 49 48 48
44 42 40 38 36 35 34 32 31 31 30 30 29 29 29 30 30 31 32 33 33 34 36 39 40 42 44 46 47 48 48 48 48 49 49 49 48 47
43 41 39 38 36 35 33 32 31 30 30 29 29 28 29 29 31 32 32 32 33 34 35 37 39 41 42 44 45 47 48 47 47 48 48 48 47 46
43 40 38 37 35 34 33 31 30 30 29 28 28 28 29 29 30 31 32 32 32 33 34 36 38 39 40 42 44 46 48 47 46 47 47 48 47 47
42 39 37 35 34 33 32 31 30 29 29 28 28 28 28 29 29 29 30 31 31 32 33 35 36 37 39 41 44 46 48 48 46 46 46 47 47 47
40 37 35 34 33 33 32 30 29 29 28 28 27 27 28 28 27 28 28 29 30 31 31 32 35 37 39 42 43 44 46 47 46 45 46 46 46 47
36 34 33 32 32 32 31 30 29 29 29 28 28 27 27 27 27 26 27 27 28 29 30 32 35 37 38 39 42 44 46 47 46 46 46 45 45 45
33 32 31 30 30 30 29 28 28 28 28 28 27 27 27 27 26 25 25 26 26 27 28 30 33 35 36 38 40 42 45 47 47 46 46 45 44 45
Wind_Direction
309 306 303 300 296 292 286 281 277 273 270 268 265 262 260 257 254 250 248 246 244 243 241 239 239 237 237 238 237 236 235 235 235 235 236 236 236 237
310 307 305 303 299 295 290 286 280 275 271 268 265 262 260 257 254 251 248 246 244 243 241 239 239 238 237 237 236 235 236 235 235 235 235 235 235 236
310 308 306 304 301 298 294 289 284 279 273 269 266 263 260 257 254 251 249 247 245 243 242 240 239 238 238 237 236 235 235 235 235 234 235 234 235 235
310 309 308 306 304 301 297 292 288 283 277 271 267 264 260 257 254 252 249 247 246 244 242 241 239 238 237 237 236 235 235 235 234 234 234 234 234 234
310 309 308 308 306 303 299 295 290 286 281 275 270 266 262 258 255 253 249 247 245 244 242 241 240 238 237 237 236 234 234 234 234 234 233 234 234 234
310 310 310 308 307 304 300 296 291 286 282 277 271 267 263 260 257 253 250 246 244 243 242 241 240 239 238 236 235 234 234 234 234 233 233 233 233 233
309 310 310 309 307 303 300 296 292 287 282 278 273 268 264 260 257 254 250 247 245 243 242 240 239 238 236 235 235 234 234 234 233 232 232 232 233 233
309 309 310 309 307 303 300 296 291 286 281 277 273 269 265 261 258 255 251 248 246 244 241 240 239 238 237 235 234 234 233 233 233 232 232 232 232 232
309 309 309 309 306 303 299 295 291 286 281 277 273 269 265 262 259 256 253 249 246 245 242 239 238 236 236 235 234 233 232 232 232 232 232 232 232 231
310 309 309 307 305 302 298 295 291 287 282 278 274 270 266 263 260 257 253 251 247 245 243 240 238 236 234 233 232 231 231 230 230 231 232 232 231 230
309 308 308 306 303 301 297 293 290 286 283 279 275 271 267 264 262 258 255 251 247 245 244 241 238 236 233 231 230 229 229 229 229 229 230 231 230 228
308 307 305 303 301 299 295 292 289 286 283 279 276 271 267 264 262 260 256 252 248 245 245 242 238 236 232 230 229 228 228 228 227 228 229 229 228 227
307 306 304 302 300 297 294 292 289 286 282 279 276 272 268 265 262 260 257 253 250 246 245 243 239 237 233 230 229 227 226 226 226 226 227 227 227 226
305 303 302 301 299 297 294 292 289 286 282 280 277 273 269 266 263 260 258 255 251 248 245 244 241 238 234 230 229 227 226 225 225 225 225 225 226 226
302 300 300 299 297 295 294 292 289 285 282 280 277 273 269 267 264 261 258 255 252 249 246 244 241 238 234 230 228 227 225 224 223 224 224 224 224 224
298 298 297 296 295 294 293 291 289 285 282 280 277 273 269 267 264 262 259 257 254 250 247 244 242 238 234 230 227 226 224 223 223 223 223 222 223 223
295 294 294 294 293 292 291 290 288 286 283 281 277 274 270 267 266 263 261 258 255 251 248 245 241 237 234 230 227 224 223 221 221 222 221 221 222 222
290 290 290 290 290 290 290 289 287 285 284 281 277 272 271 269 267 264 262 260 256 251 247 244 240 237 234 230 226 223 222 221 220 220 220 219 219 220
286 286 286 287 287 287 288 288 286 284 283 280 276 273 272 271 268 265 263 260 256 251 246 243 240 237 232 229 226 224 221 220 219 218 218 218 217 218
282 282 282 283 283 286 287 286 284 283 282 279 276 273 272 272 269 266 263 259 254 250 246 242 239 235 231 227 225 223 221 220 219 217 217 216 216 216
278 278 278 279 281 284 285 283 282 281 281 279 277 275 273 272 269 266 263 258 253 250 246 241 237 234 231 226 224 223 221 220 218 216 216 216 215 215
274 275 275 277 279 282 282 281 281 281 281 280 277 275 274 273 270 266 261 257 252 248 243 239 236 233 230 226 222 221 220 219 218 217 216 215 215 215
269 272 273 275 278 280 280 280 281 281 280 278 276 275 273 271 269 264 259 255 250 245 241 238 235 231 227 224 222 220 219 219 216 214 214 212 212 211
Height
5810 5807 5805 5802 5800 5798 5797 5796 5795 5794 5793 5791 5792 5792 5793 5794 5795 5797 5798 5800 5803 5805 5808 5811 5815 5819 5823 5827 5832 5836 5841 5846 5851 5856 5861 5865 5870 5874
5803 5800 5797 5794 5791 5788 5786 5784 5783 5783 5782 5780 5779 5780 5781 5782 5784 5785 5787 5789 5791 5794 5797 5801 5804 5808 5813 5817 5821 5826 5831 5835 5840 5846 5851 5856 5861 5865
5796 5792 5788 5785 5781 5778 5775 5772 5770 5769 5769 5767 5766 5766 5767 5769 5771 5773 5775 5777 5779 5782 5785 5789 5793 5797 5801 5806 5811 5815 5820 5825 5830 5835 5840 5846 5851 5856
5787 5783 5779 5775 5771 5767 5763 5760 5757 5755 5755 5754 5752 5752 5753 5754 5756 5759 5761 5764 5767 5770 5773 5777 5781 5785 5789 5794 5799 5804 5809 5814 5819 5824 5830 5835 5841 5846
5778 5773 5769 5764 5760 5756 5752 5748 5745 5742 5741 5741 5739 5738 5739 5739 5742 5744 5747 5750 5753 5756 5760 5764 5768 5772 5777 5782 5787 5792 5797 5803 5808 5813 5818 5824 5830 5836
5768 5763 5758 5754 5749 5744 5740 5736 5733 5730 5728 5727 5727 5725 5725 5725 5727 5730 5733 5736 5739 5742 5746 5750 5755 5759 5764 5770 5775 5780 5785 5790 5795 5801 5807 5813 5819 5825
5758 5753 5748 5743 5738 5733 5729 5725 5721 5719 5716 5715 5714 5713 5713 5713 5714 5716 5719 5722 5725 5728 5732 5737 5742 5747 5750 5756 5761 5767 5773 5778 5784 5790 5796 5802 5808 5814
5748 5742 5737 5732 5727 5722 5718 5714 5710 5707 5705 5703 5702 5702 5701 5701 5702 5704 5706 5709 5713 5716 5719 5723 5727 5732 5737 5742 5748 5754 5760 5766 5772 5778 5784 5790 5796 5802
5737 5732 5726 5721 5716 5711 5707 5703 5699 5696 5694 5692 5692 5691 5690 5690 5691 5692 5694 5696 5699 5701 5705 5710 5713 5719 5723 5729 5734 5741 5747 5753 5759 5766 5772 5778 5785 5791
5726 5721 5715 5710 5705 5700 5696 5693 5689 5686 5683 5682 5681 5680 5679 5679 5679 5681 5682 5684 5687 5689 5691 5697 5700 5705 5710 5715 5721 5728 5734 5740 5747 5753 5760 5766 5773 5779
5715 5709 5704 5699 5694 5689 5686 5682 5679 5675 5673 5671 5670 5669 5668 5668 5668 5669 5670 5672 5675 5677 5679 5684 5688 5691 5697 5703 5708 5714 5721 5727 5734 5741 5747 5754 5760 5767
5703 5698 5693 5688 5683 5678 5675 5672 5668 5665 5663 5661 5659 5658 5658 5657 5657 5658 5659 5661 5663 5666 5667 5671 5675 5679 5685 5690 5695 5701 5708 5715 5721 5728 5735 5742 5748 5755
5692 5686 5681 5676 5672 5668 5664 5661 5658 5655 5653 5650 5649 5648 5647 5646 5646 5646 5648 5649 5651 5654 5655 5658 5663 5667 5672 5678 5683 5689 5696 5702 5709 5716 5723 5730 5736 5743
5680 5675 5670 5665 5661 5657 5653 5650 5647 5644 5642 5640 5638 5637 5636 5635 5635 5636 5636 5638 5640 5642 5644 5647 5651 5655 5660 5666 5672 5678 5684 5690 5697 5704 5711 5718 5724 5731
5668 5663 5658 5654 5650 5646 5643 5639 5636 5633 5631 5630 5628 5626 5625 5625 5625 5625 5626 5627 5628 5630 5632 5635 5639 5643 5648 5654 5660 5666 5672 5679 5685 5693 5700 5706 5713 5720
5655 5651 5647 5643 5639 5635 5632 5628 5625 5623 5621 5619 5618 5616 5615 5614 5614 5614 5615 5616 5617 5619 5621 5623 5626 5631 5636 5641 5647 5654 5660 5667 5674 5681 5688 5695 5702 5709
5642 5638 5634 5631 5628 5625 5621 5618 5615 5613 5610 5609 5607 5606 5605 5604 5604 5604 5604 5605 5606 5608 5609 5611 5614 5618 5623 5629 5636 5643 5649 5656 5663 5670 5677 5685 5692 5699
5629 5626 5622 5619 5616 5614 5611 5608 5605 5602 5600 5598 5597 5596 5595 5594 5593 5593 5593 5594 5595 5596 5598 5599 5603 5607 5612 5619 5625 5631 5638 5645 5652 5658 5666 5674 5681 5688
5615 5613 5610 5607 5605 5602 5600 5597 5595 5592 5590 5588 5587 5586 5584 5583 5583 5582 5582 5582 5583 5585 5586 5588 5591 5596 5602 5608 5614 5619 5626 5633 5640 5647 5655 5663 5671 5678
5601 5600 5597 5595 5593 5591 5589 5586 5584 5582 5580 5578 5577 5575 5574 5573 5572 5572 5571 5572 5573 5574 5576 5578 5582 5586 5591 5596 5601 5608 5615 5622 5629 5637 5645 5653 5660 5667
5587 5586 5585 5584 5582 5580 5578 5576 5574 5572 5570 5568 5567 5565 5564 5563 5562 5561 5561 5561 5562 5564 5566 5568 5571 5575 5579 5585 5592 5599 5605 5612 5619 5627 5635 5642 5650 5658
5574 5573 5573 5572 5570 5569 5567 5565 5563 5562 5560 5558 5556 5555 5554 5553 5552 5551 5551 5552 5552 5554 5556 5559 5561 5565 5570 5576 5583 5589 5595 5602 5609 5617 5625 5634 5641 5650
5561 5561 5561 5561 5560 5558 5557 5555 5553 5551 5549 5548 5546 5545 5544 5543 5542 5542 5542 5542 5543 5545 5547 5550 5552 5556 5561 5567 5573 5579 5586 5593 5600 5608 5616 5624 5632 5640